Погода Угино

Поиск расширенной информации на нашем сайте:

Полезная информация:

Новости сайта



02.01.2020
Опубликован Долгосрочный прогноз погоды по городам России и ближнего зарубежья на январь 2020 года.
Карты: Прогноз на январь и февраль 2020 года, Сравнение прогнозируемой аномалии приземной температуры воздуха на январь 2020 года по разным моделям.




Погода Угино - сегодня

Время (UTC), дата Ветер
(°,м/с) 
Видим.   Явления Облачность Т
(°С)
Тd
(°С)
f(%) Тe
(°С)
Pmin
(гПа)
dP
(гПа)
Po
(мм)
O2
(г/м3)
Тmin Tmax R s Состояние
почвы
09 23.11.20 310 (СЗ) 20000 м  слаб. снег  10/0 верхняя 
[Cs]
-17.1 -19.7 80 -17  1008.2  0.8  733  317           
12 23.11.20 тихо ()   20000 м  слаб. снег  10/0 верхняя 
[Cs]
-17 -19.6 80 -17  1010.3  735  317    -16.4  0.4     
15 23.11.20 тихо ()   20000 м  слаб. снег  10/0 верхняя 
[Cs]
-18.6 -21.2 80 -19  1012.2  1.7  736  320           
18 23.11.20 тихо ()   20000 м  слаб. снег  10/0 верхняя 
[Cs]
-20.2 -22.8 80 -20  1014.4  738  323           
21 23.11.20 тихо ()   20000 м  {снег}  10/0 верхняя 
[Cs]
-21.4 -23.9 80 -21  1016  1.4  739  325           
00 24.11.20 290 (З) 50000 м  {снег}  10/0 верхняя 
[Cs]
-18.2 -20.8 80 -18  1016.7  739  321  -21.7    0.3  50  равномерный
сухой снег
100% 
15 24.11.20 310 (СЗ) 20000 м  слаб. снег  10/0 средняя 
[As op]
-12 -14.7 80 -12  1020.8  0.7  743  314           
18 24.11.20 270 (З) 20000 м  слаб. снег  10/0 средняя 
[As op]
-12.6 -15.3 80 -15  1021.5  0.7  743  315           
21 24.11.20 230 (ЮЗ) 20000 м  слаб. снег  10/0 средняя 
[As op]
-12.4 -15.1 80 -12  1020.9  -0.6  743  315           
00 25.11.20 290 (З) 10 км  слаб. снег  10/0 средняя 
[As op]
-12.8 -15.5 80 -13  1021.7  0.7  743  316  -16.2    0.3  50  равномерный
сухой снег
100% 
03 25.11.20 320 (СЗ) 20000 м  слаб. снег  10/0 верхняя 
[Cs]
-12.6 -15.3 80 -16  1021.3  -0.3  743  315           
06 25.11.20 290 (З) 20000 м  слаб. снег  10/0 верхняя 
[Cs]
-12 -14.7 80 -14  1021  -0.3  743  314           
09 25.11.20 300 (СЗ) 10 км  слаб. снег  10/0 верхняя 
[Cs]
-12.4 -15.1 80 -16  1021.7  0.7  744  315           
12 25.11.20 290 (З) 10 км  слаб. снег  10/0 верхняя 
[Cs]
-14.1 -16.8 80 -14  1022.7  0.7  744  318    -11.9  0.7     
15 25.11.20 310 (СЗ) 10 км  слаб. снег  10/0 верхняя 
[Cs]
-14.8 -17.5 80 -15  1023.4  0.6  745  319           
18 25.11.20 310 (СЗ) 10 км  слаб. снег  10/0 верхняя 
[Cs]
-15.6 -18.3 80 -18  1025.4  1.8  746  320           
21 25.11.20 тихо ()   20000 м  слаб. снег  10/0 верхняя 
[Cs]
-15.8 -18.5 80 -16  1026.1  0.7  746  321           
00 26.11.20 030 (СВ) 20000 м  {снег}  10/0 верхняя 
[Cs]
-17 -19.6 80 -17  1026.8  0.6  747  322  -17    0.4  51  равномерный
сухой снег
100% 
03 26.11.20 310 (СЗ) 20000 м    10/0 верхняя 
[Cs]
-12.3 -16.6 70 -12  1026.6  0.4  747  317           
06 26.11.20 270 (З) 20000 м  слаб. снег  10/0 средняя 
[As op]
-12 -15.5 75 -14  1027  0.4  747  316           
09 26.11.20 300 (СЗ) 10 км  слаб. снег  10/0 средняя 
[As op]
-12.6 -15.3 80 -16  1028.2  1.1  748  317           
12 26.11.20 270 (З) 10 км  слаб. снег  10/0 средняя 
[As op]
-13.8 -16.5 80 -16  1029.1  0.6  749  319    -11.9  0.9     
15 26.11.20 270 (З) 20000 м  слаб. снег  10/0 средняя 
[As op]
-15.4 -18.1 80 -15  1029  -0.2  749  321           
18 26.11.20 270 (З) 10 км  слаб. снег  10/0 средняя 
[As op]
-13.7 -16.4 80 -16  1028.7  -0.7  748  319           
21 26.11.20 270 (З) 10 км  слаб. снег  10/0 средняя 
[As op]
-13.2 -15.9 80 -15  1028.7  0.1  749  318           
Время (UTC), дата Ветер
(°,м/с) 
Видим.   Явления Облачность Т
(°С)
Тd
(°С)
f(%) Тe
(°С)
Pmin
(гПа)
dP
(гПа)
Po
(мм)
O2
(г/м3)
Тmin Tmax R s Состояние
почвы

Для получения пояснительной информации подведите курсор к названию столбца.

ПОГОДА Угино - архив

Всё, что Вы хотите узнать о погоде Угино - удобно и подробно!

Выберите нужную дату (начиная с 1 января 2019* года) и нажмите кнопку "Найти".
Будут отображены архивные сводки погоды по пункту Угино, начиная с указанной даты.


Отображать данные в формате CSV (для использования в таблицах Excel)


Внимание! Наш архив погоды предназначен исключительно для личного некоммерческого использования в познавательных целях. Если Вам необходимы официальные справки о состоянии погоды (для производственных, юридических, коммерческих и т.п. целей), обращайтесь в органы Росгидромета.

*Примечание: данная дата относится к архиву по метеостанциям СССР (Россия, СНГ, Балтия).
Архив по метеостанциям Зарубежной Европы и Азии (кроме Китая) хранится 10 дней, по другим регионам земного шара (Китай, Африка, Америка, Австралия, Океания) - 1 день.

Угино - район местоположения метеостанции


Название, широта, долгота, высота метеостанции:
Угино 58.7°ш. 128.5°д. 130 м над ур. моря [Российская Федерация]

Дополнительная информация

В oтличие oт бoльшинства пoгoдных сайтoв мы публикуем пoдрoбную метеoинфoрмацию в детальнoм прoфессиoнальнoм фoрмате.

Характеристики температуры и влажнoсти вoздуха измеряются на высoте 2 м в тени вдали oт зданий и деревьев.
Скoрoсть ветра измеряется на высoте 10 м (на урoвне рoста челoвека скoрoсть ветра ниже в 1.5-2 раза). Если метеoстанция нахoдится в гoрoде или в лесу, тo скoрoсть ветра занижена на 2-4 м/с пo сравнению с oткрытым местoм. Скoрoсть ветра над акватoриями крупных рек и oзёр, а также на вершинах хoлмoв на 2-5 м/с выше, чем в oбычных услoвиях.
Атмoсфернoе давление в разных тoчках местнoсти мoжет значительнo oтличаться oт давления на метеoстанции, в зависимoсти oт услoвий рельефа (при пoдъёме на 10 м давление пoнижается примернo на 1 мм рт.ст.).